#timestamp,LO_Frequency,Hit,StdDev 
1513004415.1,286047003.5,P
1513004416.0,286047003.5,P
1513004435.8,286047001.4,N
1513004455.6,286046998.1,N
1513004475.5,286046998.9,N
1513004495.3,286047002.4,N
1513004515.1,286047004.0,N
1513004535.9,286047001.9,N
1513004555.7,286047002.4,N
1513004575.5,286046999.4,N
1513004595.4,286046998.7,N
1513004615.2,286046997.4,N
1513004635.0,286046992.9,N
1513004635.9,286046992.9,N
1513004655.8,286046990.8,N
1513004675.6,286046987.9,N
1513004695.4,286046985.6,N
1513004715.2,286046987.6,N
1513004735.1,286046990.8,N
1513004736.0,286046990.8,N
1513004755.8,286046990.3,N
1513004775.6,286046992.4,N
1513004795.5,286046993.5,N
1513004815.3,286046994.0,N
1513004835.1,286046996.9,N
1513004855.9,286046993.4,N
1513004875.7,286046991.7,N
1513004895.5,286046997.2,N
1513004915.4,286046998.9,N
1513004935.2,286046995.3,N
1513004955.0,286046993.2,N
1513004955.9,286046993.2,N
1513004975.8,286046992.8,N
1513004995.6,286046991.8,N
1513005015.4,286046994.8,N
1513005035.2,286046992.9,N
1513005055.1,286046994.6,N
1513005056.0,286046994.6,N
1513005075.8,286046994.5,N
1513005095.6,286046992.0,N
1513005115.5,286046991.4,N
1513005135.3,286046989.7,Y
1513005155.1,286046996.0,P
1513005175.9,286046994.9,P
1513005195.7,286046998.7,N
1513005215.5,286046999.0,N
1513005235.4,286046997.9,N
1513005255.2,286047002.8,N
1513005275.0,286047004.0,N
1513005275.9,286047004.0,N
1513005295.8,286047005.6,N
1513005315.6,286047007.6,N
1513005335.4,286047001.9,N
1513005355.3,286046999.2,N
1513005375.1,286047002.7,N
1513005376.0,286047002.7,N
1513005395.8,286047003.8,N
1513005415.6,286047001.3,N
1513005435.5,286046999.7,N
1513005455.3,286047002.6,N
1513005475.1,286047002.4,N
1513005495.9,286047009.0,N
1513005515.7,286047012.0,Y
1513005535.5,286047011.8,P
1513005555.4,286047013.6,N
1513005575.2,286047009.8,N
1513005595.0,286047012.4,N
1513005595.9,286047012.4,N
1513005615.8,286047006.6,N
1513005635.6,286047008.6,N
1513005655.4,286047007.0,N
1513005675.3,286047006.1,N
1513005695.1,286047008.1,N
1513005696.0,286047008.1,N
1513005715.8,286047005.3,N
1513005735.7,286047003.5,N
1513005755.5,286047004.3,N
1513005775.3,286047005.5,N
1513005795.1,286047002.5,N
1513005815.9,286047002.9,N
1513005835.7,286047001.8,N
1513005855.5,286047004.1,N
1513005875.4,286047002.9,N
1513005895.2,286047003.3,N
1513005915.0,286047003.5,N
1513005915.9,286047003.5,N
1513005935.8,286047002.5,N
1513005955.6,286047003.3,N
1513005975.4,286047007.8,N
1513005995.3,286047015.3,Y
1513006015.1,286047008.9,P
1513006016.0,286047008.9,P
1513006035.8,286047005.9,P
1513006055.7,286047008.0,Y
1513006075.5,286047002.4,P
1513006095.3,286046999.8,N
1513006115.2,286047001.1,N
1513006135.9,286046994.9,N
1513006155.7,286046993.3,N
1513006175.6,286046990.4,N
1513006195.4,286046993.8,N
1513006215.2,286046999.9,N
1513006235.0,286047004.4,N
1513006236.0,286047004.4,N
1513006255.8,286047004.4,N
1513006275.6,286047000.4,N
1513006295.4,286047000.9,N
1513006315.3,286047004.4,N
1513006335.1,286047001.3,N
1513006355.8,286047001.6,N
1513006375.7,286047004.7,N
1513006395.5,286047004.5,N
1513006415.3,286047009.1,N
1513006435.2,286047011.5,N
1513006455.9,286047014.8,N
1513006475.7,286047011.1,N
1513006495.6,286047009.8,N
1513006515.4,286047010.0,N
1513006535.2,286047010.6,N
1513006555.0,286047012.0,N
1513006555.9,286047012.0,N
1513006575.8,286047011.3,N
1513006595.6,286047013.8,N
1513006615.4,286047012.7,N
1513006635.3,286047014.9,N
1513006655.1,286047009.4,N
1513006675.8,286047007.9,N
1513006695.7,286047008.3,N
1513006715.5,286047010.6,N
1513006735.3,286047013.6,N
1513006755.2,286047011.9,N
1513006775.9,286047007.7,N
1513006795.7,286047009.5,N
1513006815.6,286047013.9,Y
1513006835.4,286047004.2,P
1513006855.2,286047001.6,N
1513006875.1,286047005.9,N
1513006876.0,286047005.9,N
1513006895.8,286047004.6,N
1513006915.6,286047006.2,N
1513006935.4,286047003.0,N
1513006955.3,286047002.6,N
1513006975.1,286047002.4,N
1513006995.8,286046999.5,N
1513007015.7,286047004.3,N
1513007035.5,286047006.4,N
1513007055.3,286047002.8,N
1513007075.2,286046999.5,N
1513007095.9,286046996.3,N
1513007115.7,286046994.8,N
1513007135.6,286046990.5,N
1513007155.4,286046990.4,N
1513007175.2,286046992.0,N
1513007195.1,286046992.8,N
1513007196.0,286046992.8,N
1513007215.8,286046987.8,N
1513007235.6,286046988.9,N
1513007255.4,286046994.4,N
1513007275.3,286046993.9,N
1513007295.1,286046996.4,N
1513007315.8,286046991.9,N
1513007335.7,286046992.4,N
1513007355.5,286046993.1,N
1513007375.3,286046989.5,N
1513007395.2,286046988.6,N
1513007415.9,286046990.1,N
1513007435.7,286046990.7,N
1513007455.6,286046988.6,N
1513007475.4,286046993.0,N
1513007495.2,286046992.1,N
1513007515.1,286046991.9,N
1513007516.0,286046991.9,N
1513007535.8,286046995.9,N
1513007555.6,286046999.0,N
1513007575.4,286046998.4,N
1513007595.3,286046999.5,N
1513007615.1,286047000.4,N
1513007635.8,286047002.5,N
1513007655.7,286046997.8,N
1513007675.5,286046993.5,N
1513007695.3,286046994.8,N
1513007715.2,286046995.2,N
1513007735.9,286046998.0,N
1513007755.7,286046997.1,N
1513007775.6,286046996.0,N
1513007795.4,286046992.0,N
1513007815.2,286046996.3,N
1513007835.1,286046992.0,N
1513007836.0,286046992.0,N
1513007855.8,286046992.6,N
1513007875.6,286046990.6,N
1513007895.4,286046994.2,N
1513007915.3,286046994.4,N
1513007935.1,286046991.1,N
1513007955.8,286046990.6,N
1513007975.7,286046989.4,Y
1513007995.5,286046992.1,P
